Flag for Norway Weather past 2 weeks in Fredrikstad, Norway

Now
57 °F

Cool.


Feels Like: 54 °F
Forecast: 54 / 63 °F
Wind: 14 mph from Southwest

Location: Rygge

Current Time: Jul 7, 2015 at 6:54:16 AM

Latest Report: Jul 7, 2015 at 5:50 AM


Visibility: N/A

Pressure: 29.62 "Hg

Humidity: 63%

Dew point: 45 °F

Location of FredrikstadLocation

Historic Weather in Fredrikstad — Graph

°F

Fredrikstad temperature yesterday

Maximum temperature yesterday: 70 °F (at 3:50 PM)
Minimum temperature yesterday: 61 °F (at 6:20 PM)
Average temperature yesterday: 64 °F

Past Weeks' High & Low Weather Summary

 TemperatureHumidityPressure
High77 °F (Jul 5, 6:20 PM)100% (Jun 24, 2:50 AM)30.36 "Hg (Jun 24, 2:50 AM)
Low46 °F (Jun 27, 4:20 AM)37% (Jun 25, 2:50 PM)29.56 "Hg (Jul 6, 3:20 PM)
Average61 °F75%29.96 "Hg
* Reported Jun 22 5:20 AM — Jul 7 5:20 AM, Fredrikstad, Weather by CustomWeather, © 2015

Note: Actual official high and low records may vary slightly from our data, if they occured in-between our weather recording intervals... More about our weather records

Advertising

Fredrikstad weather history for previous 24 hours

 ConditionsComfort  
Time TempWeatherWind HumidityBarometerVisibility
5:20 AM
Tue, Jul 7
55 °FCool.12 mph67%29.62 "HgN/A
4:50 AM55 °FCool.12 mph67%29.62 "HgN/A
4:20 AM55 °FCool.12 mph67%29.62 "HgN/A
3:50 AM55 °FCool.12 mph67%29.62 "HgN/A
3:20 AM55 °FCool.9 mph67%29.62 "HgN/A
2:50 AM57 °FPassing clouds.10 mph63%29.62 "HgN/A
2:20 AM57 °FOvercast.12 mph63%29.62 "HgN/A
1:50 AM59 °FOvercast.13 mph59%29.62 "HgN/A
1:20 AM59 °FRefreshingly cool.13 mph59%29.62 "HgN/A
12:50 AM59 °FPassing clouds.15 mph59%29.62 "HgN/A
12:20 AM61 °FOvercast.15 mph55%29.62 "HgN/A
11:50 PM
Mon, Jul 6
61 °FPartly cloudy.15 mph55%29.62 "HgN/A
11:20 PM63 °FScattered clouds.15 mph56%29.62 "HgN/A
10:50 PM63 °FDrizzle. Mostly cloudy.12 mph56%29.62 "HgN/A
10:20 PM64 °FSunny.13 mph52%29.62 "Hg10 mi
9:50 PM64 °FPassing clouds.10 mph56%29.62 "HgN/A
9:20 PM63 °FPartly sunny.10 mph77%29.62 "HgN/A
8:50 PM63 °FPartly sunny.10 mph73%29.62 "HgN/A
8:20 PM64 °FPartly sunny.12 mph56%29.62 "HgN/A
7:50 PM63 °FPartly sunny.10 mph59%29.62 "HgN/A
7:20 PM63 °FPartly sunny.9 mph59%29.65 "HgN/A
6:50 PM63 °FPartly sunny.15 mph59%29.65 "HgN/A
6:20 PM61 °FLight rain. Scattered clouds.12 mph68%29.65 "HgN/A
5:50 PM64 °FPartly sunny.20 mph52%29.65 "HgN/A
5:20 PM64 °FPartly sunny.25 mph52%29.62 "HgN/A
4:20 PM70 °FScattered clouds.17 mph50%29.59 "HgN/A
3:50 PM70 °FPartly sunny.20 mph53%29.59 "HgN/A
3:20 PM68 °FPartly sunny.21 mph64%29.56 "HgN/A
2:50 PM66 °FPartly sunny.16 mph73%29.59 "HgN/A
2:20 PM63 °FMostly cloudy.17 mph88%29.59 "HgN/A
1:50 PM64 °FBroken clouds.21 mph78%29.59 "HgN/A
1:20 PM63 °FPartly sunny.23 mph83%29.59 "HgN/A
12:50 PM64 °FBroken clouds.22 mph78%29.59 "HgN/A
12:20 PM64 °FPartly sunny.17 mph83%29.59 "HgN/A
11:50 AM63 °FPartly sunny.16 mph83%29.62 "HgN/A
11:20 AM63 °FPartly sunny.16 mph88%29.62 "HgN/A
10:50 AM64 °FBroken clouds.15 mph88%29.59 "HgN/A
10:20 AM64 °FBroken clouds.13 mph94%29.59 "HgN/A
9:50 AM64 °FFog.10 mph94%29.59 "Hg3 mi
9:20 AM64 °FFog.10 mph94%29.59 "Hg3 mi
8:50 AM64 °FFog.14 mph94%29.59 "Hg3 mi
8:20 AM66 °FSprinkles. Partly sunny.13 mph94%29.62 "Hg6 mi
7:50 AM66 °FPartly sunny.13 mph94%29.62 "HgN/A
7:20 AM66 °FScattered showers. Broken clouds.14 mph88%29.62 "HgN/A
6:50 AM64 °FPartly sunny.14 mph94%29.65 "HgN/A
6:20 AM64 °FPartly sunny.13 mph94%29.65 "HgN/A
Weather by CustomWeather, © 2015

See weather overviewHow to use our weather pages